Regional Weather Roundup
Issued by NWS Newport/Morehead, NC

Current Version | Previous Version | Graphics & Text | Print | Product List | Glossary On
Versions: 1 2 3 4 5 6 7 8 9 10 11 12 13 14 15 16 17 18 19 20 21 22 23 24 25 26 27 28 29 30 31 32 33 34 35 36 37 38 39 40 41 42 43 44 45 46 47 48 49 50
906 ASUS42 KMHX 241725 RWRMHX WEATHER ROUNDUP FOR EASTERN NORTH CAROLINA NATIONAL WEATHER SERVICE NEWPORT/MOREHEAD CITY NC 1200 PM EST TUE JAN 24 2017 NOTE: "FAIR" INDICATES FEW OR NO CLOUDS BELOW 12,000 FEET WITH NO SIGNIFICANT WEATHER AND/OR OBSTRUCTIONS TO VISIBILITY NCZ015>017-031-032-045>047-102-103-241800- NORTH COAST CITY SKY/WX TMP DP RH WIND PRES REMARKS EDENTON PTSUNNY 51 37 57 NW18 29.58F ELIZABETH CITY PTSUNNY 48 36 63 W20G26 29.56S KITTY HAWK NOT AVBL MANTEO CLOUDY 45 37 71 NW17G28 29.55S $$ NCZ045>047-081-094-103-104-241800- CENTRAL COAST CITY SKY/WX TMP DP RH WIND PRES REMARKS FRISCO N/A 50 38 63 NW17G26 N/A $$ NCZ095-097-098-100-101-241800- SOUTHERN COAST CITY SKY/WX TMP DP RH WIND PRES REMARKS BEAUFORT MOSUNNY 54 41 61 NW21 29.60F CEDAR ISLAND NOT AVBL JACKSONVILLE NOT AVBL PINEY ISLAND MOSUNNY N/A N/A N/A W23G31 29.59F WILMINGTON PTSUNNY 56 44 64 W18 29.64F $$ NCZ011>013-027>030-043-044-078>080-089-090>093-098-241800- COASTAL PLAIN CITY SKY/WX TMP DP RH WIND PRES REMARKS AHOSKIE N/A 49 33 54 NW6 29.60F CLINTON PTSUNNY 57 43 59 NW10G17 29.65F ELIZABETHTOWN PTSUNNY 58 43 56 W14G25 29.65F GOLDSBORO PTSUNNY 55 39 56 W20G29 29.61F GREENVILLE SUNNY 54 36 50 N14G20 29.65F HAVELOCK MOSUNNY 54 37 52 NW21G31 29.61F KENANSVILLE CLOUDY 55 39 54 NW14G21 29.64S KINSTON PTSUNNY 55 37 50 NW15G22 29.63S NEW BERN MOSUNNY 52 37 56 NW17G24 29.62F RICHLANDS MOSUNNY 56 42 59 VRB7 29.63F ROCKY MOUNT MOSUNNY 56 37 49 NW14G24 29.62F WASHINGTON PTSUNNY 53 36 52 NW12G26 N/A WHITEVILLE MOSUNNY 60 42 51 W14G22 29.66F $$ AMZ130-135-150-152-154-156-158-170-250-252-270-ANZ085-086-088-633-658-670-241800- MARINE OBSERVATIONS STATION/POSITION TIME TEMP WIND PRES WAVE SWELL AIR SEA DIR/SP/G HT/PER HT/PER (UTC) (F) (DEG/KT/KT) (MB) (FT/S) (FT/S) CHESAPEAKE LIGHT NOT AVBL 64 E VA BEACH 1650 44 53 300/ 25/ 31 997.4 11/11 8/11 DUCK 1700 44 46 300/ 17/ 22 999.4 2 E DUCK 1700 47 N/A 6/11 3/11 OREGON INLET 1648 44 49 300/ 19/ 26 1000.0 13E OREGON INLT NOT AVBL HATTERAS CG 1700 47 56 300/ 22/ 26 1000.7 DIAMOND BUOY 1650 48 74 320/ 25/ 31 1000.4 9/10 5/10 CAPE LOOKOUT 1700 51 300/ 16/ 21 1001.9 BEAUFORT LAB 1700 52 52 320/ 13/ 20 1001.3 30 SE NEW RVR IN 1708 52 65 310/ 17/ 23 1003.0 30 SE NEW RVR IN 1713 65 N/A 6/13 3/13 27 SE WRIGHTSVLE 1708 54 67 260/ 16/ 21 1002.5 5 SE WRIGHTSVLE 1708 55 56 300/ 14/ 21 1003.6 225 S CAPE HAT 1650 63 71 310/ 25/ 35 1002.0 15/11 11/11 41 SE CHARLESTON 1650 58 69 300/ 16/ 19 1006.5 6/ 7 2/14 $$

USA.gov is the U.S. government's official web portal to all federal, state and local government web resources and services.